This demonstration page uses our WeatherBlox Daily Observations layout. Learn more.

Left ArrowRight Arrow

Hourly Observations for May 6, 2016

Temp ( °F °C ) Dew Point ( °F °C ) Humidity (%) Winds ( mph kmh ) Pressure ( in mb ) Visibility ( mi km ) Precip ( " mm )
12:51 am 00:51 Clear 73 22.8 15 -9.4 11 11 SW 8 13 29.65 1004 10 16 0.00 0.00
1:51 am 01:51 Clear 69 20.6 36 2.2 30 30 W 14 22 29.65 1004 10 16 0.00 0.00
2:28 am 02:28 Clear 68 20 36 2.2 31 31 W 8 13 29.71 1006 10 16 0.00 0.00
2:51 am 02:51 Clear 67 19.4 36 2.2 32 32 VRB 3 6 29.67 1005 10 16 0.00 0.00
3:51 am 03:51 Clear 64 17.8 36 2.2 35 35 S 6 9 29.68 1005 10 16 0.00 0.00
4:51 am 04:51 Clear 59 15 35 1.7 41 41 E 9 15 29.70 1006 10 16 0.00 0.00
5:51 am 05:51 Sunny 59 15 34 1.1 39 39 ENE 8 13 29.71 1006 10 16 0.00 0.00
6:51 am 06:51 Sunny 68 20 35 1.7 30 30 E 8 13 29.72 1007 10 16 0.00 0.00
7:51 am 07:51 Sunny 74 23.3 32 0 21 21 S 12 19 29.73 1007 10 16 0.00 0.00
8:51 am 08:51 Sunny 76 24.4 32 0 20 20 SSE 15 24 29.72 1006 10 16 0.00 0.00
9:51 am 09:51 Sunny 78 25.6 32 0 19 19 S 14 22 29.71 1006 10 16 0.00 0.00
10:51 am 10:51 Mostly Sunny 80 26.7 32 0 17 17 S 16 26 29.70 1006 10 16 0.00 0.00
11:51 am 11:51 Sunny 84 28.9 27 -2.8 12 12 S 20 31 29.69 1005 10 16 0.00 0.00
12:51 pm 12:51 Sunny 83 28.3 32 0 16 16 SW 17 28 29.67 1005 10 16 0.00 0.00
1:51 pm 13:51 Sunny 84 28.9 30 -1.1 14 14 SW 13 20 29.65 1004 10 16 0.00 0.00
2:51 pm 14:51 Sunny 84 28.9 25 -3.9 11 11 SW 20 31 29.62 1003 10 16 0.00 0.00
3:51 pm 15:51 Sunny 84 28.9 21 -6.1 10 10 WSW 15 24 29.61 1003 10 16 0.00 0.00
4:51 pm 16:51 Sunny 83 28.3 19 -7.2 9 9 WSW 16 26 29.61 1003 10 16 0.00 0.00
5:51 pm 17:51 Sunny 80 26.7 19 -7.2 10 10 SW 10 17 29.62 1003 10 16 0.00 0.00
6:51 pm 18:51 Sunny 77 25 20 -6.7 12 12 SW 14 22 29.62 1003 10 16 0.00 0.00
7:51 pm 19:51 Clear 72 22.2 20 -6.7 14 14 WNW 13 20 29.65 1004 10 16 0.00 0.00
8:51 pm 20:51 Clear 69 20.6 21 -6.1 16 16 W 13 20 29.68 1005 10 16 0.00 0.00
9:51 pm 21:51 Clear 65 18.3 20 -6.7 18 18 NW 9 15 29.70 1006 10 16 0.00 0.00
10:51 pm 22:51 Clear 63 17.2 26 -3.3 25 25 NW 14 22 29.73 1007 10 16 0.00 0.00
11:51 pm 23:51 Clear 63 17.2 34 1.1 34 34 WNW 16 26 29.73 1007 10 16 0.00 0.00

Powered by AerisWeather